EDDB

Berlin/Schönefeld International Airport

Airport
ICAO code
EDDB
IATA Code
BER
Summary
ICAO Region
EUR
ICAO Territory
Location

Schönefeld, Brandenburg

Serving
Berlin
Elevation
154 ft
Coordinates
52° 22' 36" N , 13° 30' 36" E
KCC
Metar
EDDB 050150Z AUTO 22012KT 9999 FEW035 12/09 Q1021 NOSIG

Description

International airport serving Berlin.

Climatology

Temperate Marine climate/Oceanic climate (Köppen climate classification Cfb) - Moderately cool summer and comparatively warm winter.

Runways

Designator Length Width Surface Rops
07L/25R 2710 45 CON Yes/Yes
07R/25L 3000 45 ASP Yes/Yes

Airport map

Aerial View

SKYbrary Partners:

Safety knowledge contributed by: